FW6490 Weather Reports


time (UTC)temp
C
wind
direction
speed
KPH
gust
KPH
rain 1hr
cm
rain 24hr
cm
rain mn
cm
humidity
%
barometer
mb
20260504081913 8 278 0.0 0.0 0.00 0.00 0.00 91 1010.3
20260504081412 8 278 0.0 0.0 0.00 0.00 0.00 91 1010.3
20260504080908 8 278 0.0 0.0 0.00 0.00 0.00 91 1010.3
20260504080407 8 278 0.0 0.0 0.00 0.00 0.00 91 1010.3
20260504070342 8 278 0.0 0.0 0.00 0.00 0.00 90 1010.4
20260504050248 11 278 0.0 0.0 0.00 0.00 0.00 85 1010.2
20260504045745 11 278 0.0 0.0 0.00 0.00 0.00 85 1010.0
20260504045245 11 278 0.0 0.0 0.00 0.00 0.00 85 1010.0
20260504043738 11 278 0.0 4.8 0.00 0.00 0.00 85 1010.0
20260504043230 11 278 1.6 4.8 0.00 0.00 0.00 85 1010.0
20260504042728 11 278 1.6 4.8 0.00 0.00 0.00 84 1009.7
20260504042228 11 278 1.6 3.2 0.00 0.00 0.00 84 1009.7
20260504041725 11 278 1.6 3.2 0.00 0.00 0.00 84 1009.7
20260504041220 11 278 0.0 3.2 0.00 0.00 0.00 83 1009.5
20260504040719 11 278 1.6 3.2 0.00 0.00 0.00 83 1009.5
20260504040215 11 278 1.6 3.2 0.00 0.00 0.00 82 1009.5
20260504034710 12 278 1.6 6.4 0.00 0.00 0.00 79 1009.5
20260504034205 12 278 1.6 6.4 0.00 0.00 0.00 78 1009.3
20260504033704 12 278 0.0 1.6 0.00 0.00 0.00 78 1009.3
20260504032200 13 278 0.0 3.2 0.00 0.00 0.00 76 1009.2
20260504031658 13 278 1.6 4.8 0.00 0.00 0.00 76 1009.2
20260504031157 13 278 3.2 4.8 0.00 0.00 0.00 76 1009.1
20260504030657 13 278 3.2 4.8 0.00 0.00 0.00 75 1009.1
20260504030156 13 278 1.6 6.4 0.00 0.00 0.00 75 1009.1
20260504025652 13 279 1.6 6.4 0.00 0.00 0.00 75 1009.0
20260504024148 14 279 1.6 4.8 0.00 0.00 0.00 73 1009.0
20260504023648 14 279 1.6 9.7 0.00 0.00 0.00 72 1009.0
20260504023143 15 279 1.6 9.7 0.00 0.00 0.00 71 1009.0
20260504022642 15 278 1.6 11.3 0.00 0.00 0.00 70 1008.7
20260504022140 15 282 1.6 11.3 0.00 0.00 0.00 68 1008.7
20260504021638 16 326 1.6 6.4 0.00 0.00 0.00 67 1008.7
20260504020636 16 288 1.6 4.8 0.00 0.00 0.00 65 1008.5
20260504020131 16 286 1.6 4.8 0.00 0.00 0.00 65 1008.5
20260504015629 16 285 3.2 9.7 0.00 0.00 0.00 64 1008.5
20260504014123 17 320 3.2 11.3 0.00 0.00 0.00 62 1008.5
20260504013624 17 320 3.2 11.3 0.00 0.00 0.00 62 1008.5
20260504013126 17 302 3.2 12.9 0.00 0.00 0.00 62 1008.5
20260504012118 17 279 4.8 14.5 0.00 0.00 0.00 62 1008.4
20260504011618 17 275 6.4 14.5 0.00 0.00 0.00 61 1008.4
20260504011116 17 346 6.4 17.7 0.00 0.00 0.00 61 1008.4
20260504010117 17 250 8.0 19.3 0.00 0.00 0.00 60 1008.4
20260504005616 17 303 8.0 17.7 0.00 0.00 0.00 60 1008.2
20260504005119 17 297 8.0 17.7 0.00 0.00 0.00 59 1008.2
20260504004623 17 277 6.4 16.1 0.00 0.00 0.00 60 1008.3
20260504004113 17 269 6.4 19.3 0.00 0.00 0.00 60 1008.1
20260504003612 17 303 8.0 19.3 0.00 0.00 0.00 60 1008.1
20260504003108 17 315 9.7 17.7 0.00 0.00 0.00 60 1008.1
20260504002604 17 306 8.0 16.1 0.00 0.00 0.00 59 1008.1
20260504001603 18 314 8.0 19.3 0.00 0.00 0.00 57 1008.1
20260504001103 18 289 8.0 19.3 0.00 0.00 0.00 56 1008.1
20260503235058 18 313 9.7 16.1 0.00 0.00 0.00 54 1008.0
20260503234556 18 336 9.7 17.7 0.00 0.00 0.00 53 1008.0
20260503234054 18 299 9.7 17.7 0.00 0.00 0.00 53 1007.9
20260503233555 18 316 9.7 17.7 0.00 0.00 0.00 52 1007.9
20260503233050 19 308 9.7 24.1 0.00 0.00 0.00 51 1007.9
20260503232549 18 321 9.7 24.1 0.00 0.00 0.00 53 1007.7
20260503232048 19 298 9.7 17.7 0.00 0.00 0.00 51 1007.7
20260503231547 19 315 11.3 20.9 0.00 0.00 0.00 52 1007.7
20260503231045 19 298 9.7 20.9 0.00 0.00 0.00 50 1007.6
20260503230550 20 311 8.0 19.3 0.00 0.00 0.00 51 1007.6
20260503230050 19 298 8.0 19.3 0.00 0.00 0.00 53 1007.6
20260503225543 19 334 6.4 16.1 0.00 0.00 0.00 53 1007.8
20260503224536 19 268 8.0 19.3 0.00 0.00 0.00 53 1007.8
20260503224035 19 327 6.4 19.3 0.00 0.00 0.00 53 1007.9
20260503223535 19 346 6.4 14.5 0.00 0.00 0.00 53 1007.9
20260503223035 19 325 6.4 14.5 0.00 0.00 0.00 52 1007.9
20260503222535 19 329 6.4 14.5 0.00 0.00 0.00 52 1008.0
20260503222030 19 300 6.4 17.7 0.00 0.00 0.00 54 1008.0
20260503221535 19 329 6.4 17.7 0.00 0.00 0.00 53 1008.0
20260503221034 20 13 6.4 14.5 0.00 0.00 0.00 52 1008.1
20260503220531 20 322 6.4 12.9 0.00 0.00 0.00 52 1008.1
20260503220030 19 342 4.8 12.9 0.00 0.00 0.00 54 1008.1
20260503215522 18 324 4.8 12.9 0.00 0.00 0.00 54 1008.1
20260503214523 18 317 6.4 17.7 0.00 0.00 0.00 56 1008.1
20260503214022 18 342 8.0 17.7 0.00 0.00 0.00 56 1008.1
20260503213519 18 313 6.4 14.5 0.00 0.00 0.00 55 1008.1
20260503213018 18 329 6.4 14.5 0.00 0.00 0.00 56 1008.1
20260503212016 18 355 6.4 14.5 0.00 0.00 0.00 56 1008.1
20260503211011 18 28 4.8 16.1 0.00 0.00 0.00 58 1008.1
20260503210512 18 33 4.8 12.9 0.00 0.00 0.00 58 1008.1
20260503210011 18 17 4.8 12.9 0.00 0.00 0.00 59 1008.1
20260503205508 18 275 6.4 12.9 0.00 0.00 0.00 58 1008.3
20260503204504 18 309 6.4 11.3 0.00 0.00 0.00 57 1008.3
20260503203456 18 327 6.4 17.7 0.00 0.00 0.00 58 1008.5
20260503202957 18 317 6.4 17.7 0.00 0.00 0.00 57 1008.5
20260503202456 18 330 4.8 11.3 0.00 0.00 0.00 59 1008.6
20260503201958 18 313 6.4 14.5 0.00 0.00 0.00 59 1008.6
20260503201459 18 311 6.4 14.5 0.00 0.00 0.00 59 1008.6
20260503200955 18 44 6.4 12.9 0.00 0.00 0.00 58 1008.5
20260503200452 19 327 4.8 11.3 0.00 0.00 0.00 57 1008.5
20260503195952 19 327 4.8 12.9 0.00 0.00 0.00 55 1008.5
20260503194951 19 330 4.8 12.9 0.00 0.00 0.00 56 1008.6
20260503194449 19 315 8.0 12.9 0.00 0.00 0.00 54 1008.6
20260503193944 19 259 6.4 14.5 0.00 0.00 0.00 54 1008.6
20260503193442 20 318 4.8 14.5 0.00 0.00 0.00 54 1008.6
20260503192946 20 329 4.8 11.3 0.00 0.00 0.00 55 1008.6
20260503192438 19 345 4.8 9.7 0.00 0.00 0.00 56 1008.9
20260503191937 18 38 4.8 12.9 0.00 0.00 0.00 57 1008.9
20260503191433 18 337 4.8 12.9 0.00 0.00 0.00 59 1008.9
20260503190929 18 333 4.8 14.5 0.00 0.00 0.00 59 1008.9
20260503190427 18 5 6.4 14.5 0.00 0.00 0.00 59 1008.9
20260503185925 18 322 6.4 12.9 0.00 0.00 0.00 57 1008.9
20260503185425 19 327 4.8 11.3 0.00 0.00 0.00 57 1008.9
20260503184919 19 339 4.8 14.5 0.00 0.00 0.00 56 1008.9
20260503184419 19 10 4.8 14.5 0.00 0.00 0.00 57 1008.9
20260503183922 18 17 4.8 9.7 0.00 0.00 0.00 58 1009.1
20260503183420 18 321 4.8 9.7 0.00 0.00 0.00 58 1009.1
20260503182913 18 257 4.8 9.7 0.00 0.00 0.00 59 1009.1
20260503182410 18 280 3.2 9.7 0.00 0.00 0.00 61 1009.2
20260503181910 18 290 3.2 9.7 0.00 0.00 0.00 63 1009.2
20260503181409 18 290 3.2 9.7 0.00 0.00 0.00 62 1009.2
20260503180909 18 289 3.2 9.7 0.00 0.00 0.00 64 1009.2
20260503175908 17 279 3.2 11.3 0.00 0.00 0.00 68 1009.1
20260503175408 17 313 3.2 9.7 0.00 0.00 0.00 67 1009.1
20260503174907 17 313 3.2 9.7 0.00 0.00 0.00 65 1009.1
20260503174410 17 289 3.2 8.0 0.00 0.00 0.00 68 1009.1
20260503173901 17 288 3.2 11.3 0.00 0.00 0.00 67 1009.1
20260503173401 17 355 4.8 11.3 0.00 0.00 0.00 70 1009.1
20260503172857 16 54 4.8 12.9 0.00 0.00 0.00 73 1009.1
20260503172357 16 338 4.8 12.9 0.00 0.00 0.00 73 1009.1
20260503171857 16 325 4.8 9.7 0.00 0.00 0.00 74 1009.1
20260503171356 16 327 4.8 11.3 0.00 0.00 0.00 76 1009.0
20260503170356 15 320 3.2 9.7 0.00 0.00 0.00 80 1009.0
20260503150328 13 61 1.6 4.8 0.00 0.00 0.00 85 1008.3
20260503131251 11 293 0.0 1.6 0.00 0.00 0.00 86 1007.3
20260503120221 12 293 0.0 1.6 0.00 0.00 0.00 84 1006.8
20260503110657 12 293 1.6 4.8 0.00 0.00 0.00 82 1006.9